EW7349 Weather Reports


time (UTC)temp
F
wind
direction
speed
knots
gust
knots
rain 1hr
in
rain 24hr
in
rain mn
in
humidity
%
barometer
mb
20260504002801 57 117 0.0 0.0 0.00 0.00 0.00 46 1014.4
20260504002303 57 117 0.0 0.0 0.00 0.00 0.00 46 1014.4
20260504001755 58 117 0.0 0.0 0.00 0.00 0.00 45 1014.4
20260504001248 58 117 0.0 0.0 0.00 0.00 0.00 42 1014.5
20260504000742 59 117 0.0 0.0 0.00 0.00 0.00 41 1014.4
20260504000547 59 117 0.0 0.0 0.00 0.00 0.00 40 1014.4
20260504000457 60 117 0.0 0.0 0.00 0.00 0.00 40 1014.4
20260503235425 61 117 0.0 0.0 0.00 0.00 0.00 39 1014.2
20260503235312 60 117 0.0 0.0 0.00 0.00 0.00 40 1014.3
20260503234213 61 117 0.0 0.0 0.00 0.00 0.00 39 1014.1
20260503233926 61 117 0.0 0.9 0.00 0.00 0.00 38 1014.2
20260503233200 62 117 0.0 1.7 0.00 0.00 0.00 38 1014.2
20260503232653 62 117 0.0 1.7 0.00 0.00 0.00 38 1014.2
20260503232147 62 322 0.0 0.0 0.00 0.00 0.00 39 1014.1
20260503231640 62 322 0.0 0.9 0.00 0.00 0.00 39 1014.0
20260503231352 63 322 0.0 0.9 0.00 0.00 0.00 35 1014.0
20260503230628 63 258 0.0 0.9 0.00 0.00 0.00 35 1014.0
20260503230122 63 258 0.0 1.7 0.00 0.00 0.00 34 1014.0
20260503225615 63 252 0.0 1.7 0.00 0.00 0.00 33 1013.9
20260503225111 63 254 0.9 2.6 0.00 0.00 0.00 31 1014.0
20260503224603 62 228 0.9 4.3 0.00 0.00 0.00 29 1014.0
20260503224058 62 335 0.9 4.3 0.00 0.00 0.00 29 1014.1
20260503223814 63 38 0.9 3.5 0.00 0.00 0.00 29 1014.0
20260503223051 63 0 0.9 3.5 0.00 0.00 0.00 28 1014.1
20260503222541 64 24 0.9 5.2 0.00 0.00 0.00 29 1014.0
20260503222034 64 229 1.7 5.2 0.00 0.00 0.00 28 1014.1
20260503221753 64 205 1.7 4.3 0.00 0.00 0.00 29 1014.1
20260503221022 63 55 0.9 6.1 0.00 0.00 0.00 28 1014.1
20260503220516 63 256 0.9 6.1 0.00 0.00 0.00 28 1014.2
20260503220235 63 267 0.9 3.5 0.00 0.00 0.00 28 1014.2
20260503215505 63 346 1.7 6.1 0.00 0.00 0.00 30 1014.1
20260503215215 63 69 1.7 6.1 0.00 0.00 0.00 30 1014.2
20260503214452 63 145 1.7 5.2 0.00 0.00 0.00 29 1014.2
20260503213947 63 92 0.9 3.5 0.00 0.00 0.00 28 1014.2
20260503213443 63 244 1.7 3.5 0.00 0.00 0.00 29 1014.1
20260503212944 63 63 1.7 3.5 0.00 0.00 0.00 27 1014.2
20260503212444 64 346 1.7 4.3 0.00 0.00 0.00 29 1014.3
20260503211943 64 279 1.7 7.0 0.00 0.00 0.00 29 1014.2
20260503211441 63 244 2.6 11.3 0.00 0.00 0.00 29 1014.3
20260503210941 63 294 2.6 11.3 0.00 0.00 0.00 28 1014.3
20260503210703 63 217 2.6 9.6 0.00 0.00 0.00 29 1014.3
20260503205941 64 295 1.7 6.1 0.00 0.00 0.00 28 1014.4
20260503205443 64 215 1.7 6.1 0.00 0.00 0.00 30 1014.3
20260503204942 64 230 1.7 6.1 0.00 0.00 0.00 29 1014.3
20260503204441 64 72 0.9 4.3 0.00 0.00 0.00 31 1014.4
20260503204206 64 113 1.7 5.2 0.00 0.00 0.00 30 1014.4
20260503203441 64 43 1.7 7.8 0.00 0.00 0.00 30 1014.5
20260503202943 64 22 2.6 7.8 0.00 0.00 0.00 29 1014.6
20260503202441 65 19 1.7 7.0 0.00 0.00 0.00 29 1014.6
20260503201940 64 190 1.7 7.0 0.00 0.00 0.00 31 1014.7
20260503201443 64 217 1.7 7.8 0.00 0.00 0.00 29 1014.7
20260503200938 64 186 1.7 7.8 0.00 0.00 0.00 29 1014.8
20260503200432 66 275 1.7 7.8 0.00 0.00 0.00 28 1014.8
20260503195925 65 257 1.7 7.0 0.00 0.00 0.00 30 1014.9
20260503195637 65 237 1.7 5.2 0.00 0.00 0.00 29 1014.9
20260503194914 63 55 1.7 7.0 0.00 0.00 0.00 31 1015.0
20260503194407 64 76 1.7 7.0 0.00 0.00 0.00 29 1015.3
20260503194124 63 150 1.7 7.8 0.00 0.00 0.00 30 1015.3
20260503193355 63 296 2.6 7.8 0.00 0.00 0.00 32 1015.4
20260503193119 63 213 2.6 7.8 0.00 0.00 0.00 29 1015.4
20260503192343 66 298 1.7 7.8 0.00 0.00 0.00 26 1015.5
20260503191838 66 325 1.7 3.5 0.00 0.00 0.00 29 1015.5
20260503191333 64 333 1.7 6.1 0.00 0.00 0.00 31 1015.6
20260503190827 64 338 2.6 9.6 0.00 0.00 0.00 32 1015.7
20260503190319 64 252 1.7 9.6 0.00 0.00 0.00 29 1015.7
20260503185815 65 338 1.7 7.8 0.00 0.00 0.00 29 1015.8
20260503185308 66 281 1.7 7.8 0.00 0.00 0.00 30 1015.8
20260503184800 64 240 1.7 7.8 0.00 0.00 0.00 31 1016.0
20260503184255 63 124 1.7 7.0 0.00 0.00 0.00 31 1016.0
20260503183751 63 251 2.6 7.8 0.00 0.00 0.00 29 1016.0
20260503183252 65 310 2.6 7.8 0.00 0.00 0.00 31 1016.2
20260503182754 65 230 1.7 7.8 0.00 0.00 0.00 32 1016.0
20260503182249 63 166 1.7 5.2 0.00 0.00 0.00 33 1015.9
20260503181749 64 214 1.7 5.2 0.00 0.00 0.00 30 1016.1
20260503181250 64 306 2.6 5.2 0.00 0.00 0.00 30 1016.2
20260503180748 63 53 1.7 5.2 0.00 0.00 0.00 30 1016.3
20260503180250 61 91 2.6 7.8 0.00 0.00 0.00 31 1016.3
20260503175748 60 25 2.6 7.8 0.00 0.00 0.00 34 1016.3
20260503175250 60 294 1.7 6.1 0.00 0.00 0.00 32 1016.4
20260503175238 58 273 2.6 7.8 0.00 0.00 0.00 34 1016.5
20260503174249 60 115 2.6 7.8 0.00 0.00 0.00 32 1016.4
20260503174009 61 292 3.5 11.3 0.00 0.00 0.00 33 1016.6
20260503173250 60 285 2.6 11.3 0.00 0.00 0.00 34 1016.4
20260503172746 60 273 1.7 6.1 0.00 0.00 0.00 33 1016.5
20260503172245 60 247 1.7 9.6 0.00 0.00 0.00 33 1016.6
20260503171745 60 355 1.7 9.6 0.00 0.00 0.00 32 1016.6
20260503171513 60 231 2.6 8.7 0.00 0.00 0.00 33 1016.7
20260503170745 60 173 2.6 8.7 0.00 0.00 0.00 33 1016.6
20260503170245 60 20 2.6 7.0 0.00 0.00 0.00 34 1016.7
20260503150737 53 238 3.5 10.4 0.00 0.00 0.00 40 1017.5
20260503150237 53 88 2.6 10.4 0.00 0.00 0.00 42 1017.5
20260503140232 49 320 1.7 8.7 0.00 0.00 0.00 50 1017.7
20260503131215 46 256 0.9 3.5 0.00 0.00 0.00 59 1017.7
20260503130708 46 150 1.7 9.6 0.00 0.00 0.00 59 1017.8
20260503130424 46 227 1.7 9.6 0.00 0.00 0.00 60 1017.8
20260503110446 40 34 0.0 0.9 0.00 0.00 0.00 75 1016.5
20260503090313 42 32 0.0 2.6 0.00 0.00 0.00 69 1015.1
20260503081257 43 42 0.0 0.9 0.00 0.00 0.00 67 1014.7
20260503080752 43 42 0.0 0.0 0.00 0.00 0.00 67 1014.7
20260503080251 43 42 0.0 0.0 0.00 0.00 0.00 66 1014.7
20260503072742 44 65 0.0 1.7 0.00 0.00 0.00 63 1014.7
20260503072243 45 58 0.0 0.9 0.00 0.00 0.00 63 1014.6
20260503071745 45 53 0.0 1.7 0.00 0.00 0.00 63 1014.5
20260503071243 45 0 0.0 1.7 0.00 0.00 0.00 63 1014.5
20260503070744 45 285 0.9 1.7 0.00 0.00 0.00 63 1014.4
20260503070238 45 285 0.9 3.5 0.00 0.00 0.00 62 1014.3
20260503060237 47 355 0.9 3.5 0.00 0.00 0.00 60 1014.1
20260503054738 47 66 0.9 4.3 0.00 0.00 0.00 59 1014.2
20260503054239 48 24 0.9 1.7 0.00 0.00 0.00 58 1014.1
20260503053737 48 314 0.9 2.6 0.00 0.00 0.00 58 1014.1
20260503053231 48 107 0.9 2.6 0.00 0.00 0.00 57 1014.2
20260503052724 48 51 0.9 3.5 0.00 0.00 0.00 57 1014.1
20260503052218 49 0 0.9 3.5 0.00 0.00 0.00 56 1014.1
20260503051712 49 49 0.9 2.6 0.00 0.00 0.00 56 1014.2
20260503051206 49 355 0.9 3.5 0.00 0.00 0.00 55 1014.2
20260503050708 49 57 0.9 3.5 0.00 0.00 0.00 55 1014.1
20260503050207 49 36 1.7 4.3 0.00 0.00 0.00 55 1014.1
20260503045926 49 92 1.7 4.3 0.00 0.00 0.00 55 1014.1
20260503045205 49 16 0.9 4.3 0.00 0.00 0.00 55 1014.1
20260503045153 50 26 1.7 4.3 0.00 0.00 0.00 54 1014.1
20260503044204 50 51 1.7 3.5 0.00 0.00 0.00 54 1014.2
20260503043704 50 101 0.9 3.5 0.00 0.00 0.00 54 1014.2
20260503043203 50 86 1.7 3.5 0.00 0.00 0.00 54 1014.2
20260503042701 50 307 1.7 4.3 0.00 0.00 0.00 54 1014.2
20260503042201 50 31 1.7 4.3 0.00 0.00 0.00 54 1014.1
20260503041702 50 77 0.9 4.3 0.00 0.00 0.00 54 1014.1
20260503041158 51 100 0.9 3.5 0.00 0.00 0.00 53 1014.1
20260503040657 51 138 0.9 4.3 0.00 0.00 0.00 53 1014.1
20260503040200 51 71 1.7 4.3 0.00 0.00 0.00 53 1014.0
20260503035658 51 65 0.9 3.5 0.00 0.00 0.00 53 1014.0
20260503035158 51 52 1.7 4.3 0.00 0.00 0.00 53 1014.0
20260503034656 51 302 1.7 4.3 0.00 0.00 0.00 52 1013.9
20260503034157 51 65 1.7 4.3 0.00 0.00 0.00 52 1013.9
20260503033653 51 50 1.7 4.3 0.00 0.00 0.00 53 1013.8
20260503033420 52 43 1.7 5.2 0.00 0.00 0.00 52 1013.8
20260503032653 52 62 1.7 5.2 0.00 0.00 0.00 52 1013.7
20260503032419 52 96 1.7 6.1 0.00 0.00 0.00 53 1013.6
20260503031654 52 55 0.9 6.1 0.00 0.00 0.00 53 1013.6
20260503031415 52 57 0.9 4.3 0.00 0.00 0.00 54 1013.6
20260503030651 53 59 0.9 2.6 0.00 0.00 0.00 54 1013.5
20260503030151 53 47 0.0 3.5 0.00 0.00 0.00 53 1013.7
20260503025646 53 47 0.0 3.5 0.00 0.00 0.00 53 1013.7
20260503025147 53 53 0.9 2.6 0.00 0.00 0.00 53 1013.7
20260503024646 53 57 0.9 2.6 0.00 0.00 0.00 53 1013.7
20260503024147 53 67 0.0 2.6 0.00 0.00 0.00 54 1013.6
20260503023644 53 66 0.0 1.7 0.00 0.00 0.00 54 1013.7
20260503023146 53 24 0.0 1.7 0.00 0.00 0.00 54 1013.7
20260503022646 53 53 0.0 1.7 0.00 0.00 0.00 54 1013.6
20260503022144 53 53 0.0 2.6 0.00 0.00 0.00 53 1013.7
20260503021644 53 61 0.0 2.6 0.00 0.00 0.00 53 1013.7
20260503021411 53 63 0.0 0.9 0.00 0.00 0.00 54 1013.7
20260503020642 53 63 0.0 1.7 0.00 0.00 0.00 54 1013.7
20260503020359 53 63 0.0 1.7 0.00 0.00 0.00 53 1013.7
20260503015641 54 338 0.0 0.9 0.00 0.00 0.00 53 1013.6
20260503015405 54 338 0.0 2.6 0.00 0.00 0.00 53 1013.6
20260503014643 54 333 0.0 2.6 0.00 0.00 0.00 53 1013.5
20260503014142 54 50 0.0 1.7 0.00 0.00 0.00 53 1013.4
20260503013637 54 25 0.0 0.9 0.00 0.00 0.00 54 1013.5
20260503013135 54 25 0.9 1.7 0.00 0.00 0.00 54 1013.4
20260503012638 54 13 0.0 2.6 0.00 0.00 0.00 53 1013.2
20260503012131 54 53 0.0 1.7 0.00 0.00 0.00 53 1013.2
20260503011626 55 55 0.0 0.9 0.00 0.00 0.00 53 1013.1
20260503011120 55 55 0.0 0.9 0.00 0.00 0.00 52 1013.1
20260503010614 55 53 0.0 1.7 0.00 0.00 0.00 52 1013.0
20260503010107 55 49 0.0 1.7 0.00 0.00 0.00 51 1013.0
20260503005601 55 88 0.0 1.7 0.00 0.00 0.00 49 1012.9
20260503005055 55 86 0.0 0.9 0.00 0.00 0.00 50 1012.8
20260503004551 56 86 0.0 0.9 0.00 0.00 0.00 49 1012.7
20260503004044 56 86 0.0 0.9 0.00 0.00 0.00 49 1012.5
20260503003538 56 86 0.0 0.0 0.00 0.00 0.00 48 1012.4